Location: London
(42.9830°N, 81.2500°W)
Time: 01:56:14
(UTC-04:00)

Amateur Radio Satellites - All Passes

Search period start: 20 September 2014 01:26
Search period end: 21 September 2014 01:26
Location: London, 42.9830°N, 81.2500°W

Satellite Date Start Highest point End Downlink Frequencies (MHz)
Time Altitude Azimuth
Oscar 16 20 Sep 02:06:58 02:11:05 24° 93° (E) 02:15:10 437.025 USB, Beacon 2401.1428
AO-Echo 20 Sep 02:18:46 02:21:14 14° 90° (E) 02:23:43 ?
KITSAT 1 20 Sep 02:32:05 02:37:28 19° 25° (NNE) 02:42:51 435.175 FM
Saudisat 1A 20 Sep 02:34:04 02:38:31 83° 56° (NE) 02:42:55 436.775 MHz
Oscar 10/S400 20 Sep 02:43:54 03:51:23 32° 233° (SW) 07:53:04 145.825 - 145.975 CW/USB, Beacon 145.810 USB
ITAMSAT 1 20 Sep 02:50:52 02:55:08 25° 94° (E) 02:59:23 435.822 SSB
Uribyol 2 20 Sep 02:54:49 02:59:20 29° 95° (E) 03:03:50 436.500 FM
UOSAT-12 20 Sep 03:00:59 03:03:36 15° 326° (NW) 03:06:14 437.025 FM, 437.400 FM
Oscar 19 20 Sep 03:06:35 03:11:48 81° 103° (ESE) 03:16:56 437.125 CW, 437.150 USB
ISS 20 Sep 03:14:13 03:17:25 45° 141° (SE) 03:20:37 145.800 FM
RS-15 20 Sep 03:17:26 03:24:50 21° 100° (E) 03:32:08 29.354 - 29.394 USB, Beacon 29.352 USB
TMSAT-1 20 Sep 03:18:25 03:21:42 16° 90° (E) 03:24:58 436.925 FM
AO-27 20 Sep 03:25:24 03:30:30 53° 100° (E) 03:35:35 436.795 MHz FM
OPAL 20 Sep 03:39:17 03:42:02 15° 56° (NE) 03:44:47 ?
JAS-1B 20 Sep 03:42:11 03:47:59 77° 104° (ESE) 03:53:43 435.800 - 435.900 CW/SSB
Oscar 16 20 Sep 03:45:43 03:50:38 44° 291° (WNW) 03:55:30 437.025 USB, Beacon 2401.1428
AO-Echo 20 Sep 03:55:37 04:00:26 69° 286° (WNW) 04:05:23 ?
Saudisat 1A 20 Sep 04:16:19 04:17:25 11° 253° (WSW) 04:18:31 436.775 MHz
Gurwin Techsat 1B 20 Sep 04:19:57 04:25:18 80° 103° (ESE) 04:30:37 435.225 FM
KITSAT 1 20 Sep 04:27:03 04:34:58 54° 50° (NE) 04:42:48 435.175 FM
ITAMSAT 1 20 Sep 04:29:52 04:34:46 42° 291° (WNW) 04:39:39 435.822 SSB
AO-7 20 Sep 04:31:18 04:37:28 23° 92° (E) 04:43:36 29.400 - 29.500 MHz
Uribyol 2 20 Sep 04:34:05 04:38:51 37° 292° (WNW) 04:43:37 436.500 FM
Oscar 19 20 Sep 04:47:43 04:50:27 15° 301° (WNW) 04:53:09 437.125 CW, 437.150 USB
ISS 20 Sep 04:51:11 04:54:13 31° 339° (NNW) 04:57:15 145.800 FM
TMSAT-1 20 Sep 04:56:50 05:02:06 66° 287° (WNW) 05:07:20 436.925 FM
AO-27 20 Sep 05:05:45 05:09:38 22° 298° (WNW) 05:13:31 436.795 MHz FM
Uosat F 20 Sep 05:06:26 05:10:44 28° 96° (E) 05:15:01 435.120 FM
OPAL 20 Sep 05:14:59 05:20:11 86° 254° (WSW) 05:25:26 ?
RS-15 20 Sep 05:24:25 05:35:29 85° 121° (ESE) 05:46:27 29.354 - 29.394 USB, Beacon 29.352 USB
JAS-1B 20 Sep 05:34:42 05:37:56 15° 304° (NW) 05:41:06 435.800 - 435.900 CW/SSB
JAS-2 20 Sep 05:45:20 05:48:20 14° 90° (E) 05:51:28 435.800 - 435.900 CW/SSB, 435.910 FM
STRAND 1 20 Sep 05:59:06 06:02:11 16° 60° (ENE) 06:05:17 ?
Gurwin Techsat 1B 20 Sep 06:01:38 06:04:35 15° 301° (WNW) 06:07:32 435.225 FM
AO-7 20 Sep 06:22:47 06:31:05 80° 291° (WNW) 06:39:21 29.400 - 29.500 MHz
KITSAT 1 20 Sep 06:22:51 06:30:07 39° 251° (WSW) 06:37:22 435.175 FM
ISS 20 Sep 06:29:16 06:31:40 18° 359° (N) 06:34:04 145.800 FM
SO-50 20 Sep 06:32:09 06:36:06 25° 43° (NE) 06:40:06 436.795 FM
Uosat F 20 Sep 06:45:00 06:49:34 36° 292° (WNW) 06:54:07 435.120 FM
OPAL 20 Sep 06:58:44 06:59:47 11° 271° (W) 07:00:50 ?
JAS-2 20 Sep 07:27:56 07:33:58 87° 104° (ESE) 07:40:49 435.800 - 435.900 CW/SSB, 435.910 FM
Hamsat 20 Sep 07:32:33 07:36:49 78° 284° (WNW) 07:41:01 145.90 MHz
STRAND 1 20 Sep 07:35:45 07:40:49 69° 258° (WSW) 07:45:55 ?
RS-15 20 Sep 07:39:27 07:49:12 35° 328° (NNW) 07:59:02 29.354 - 29.394 USB, Beacon 29.352 USB
ISS 20 Sep 08:06:13 08:09:09 28° 19° (NNE) 08:12:04 145.800 FM
UOSAT-12 20 Sep 08:07:27 08:11:00 20° 40° (NE) 08:14:31 437.025 FM, 437.400 FM
SO-50 20 Sep 08:12:16 08:16:57 53° 241° (WSW) 08:21:41 436.795 FM
AO-7 20 Sep 08:17:07 08:22:38 20° 311° (NW) 08:28:09 29.400 - 29.500 MHz
MaSat-1 20 Sep 08:27:07 08:31:39 36° 109° (ESE) 08:36:09 437.345 MHz
SO-67 20 Sep 08:40:17 08:43:46 85° 284° (WNW) 08:47:12 435.3500 MHz FM
JAS-2 20 Sep 09:14:49 09:18:28 17° 300° (WNW) 09:22:22 435.800 - 435.900 CW/SSB, 435.910 FM
ISS 20 Sep 09:42:46 09:46:03 60° 217° (SW) 09:49:20 145.800 FM
UOSAT-12 20 Sep 09:46:55 09:51:37 68° 239° (WSW) 09:56:14 437.025 FM, 437.400 FM
RS-15 20 Sep 09:57:49 10:06:03 23° 3° (N) 10:14:24 29.354 - 29.394 USB, Beacon 29.352 USB
MaSat-1 20 Sep 10:03:55 10:08:26 32° 305° (NW) 10:12:49 437.345 MHz
HO-68 20 Sep 10:21:15 10:28:22 61° 102° (ESE) 10:35:26 435.675 MHz FM
FUNcube-1 20 Sep 10:36:41 10:39:02 14° 89° (E) 10:41:22 145.950 - 145.970 MHz USB
Oscar 11 20 Sep 10:43:41 10:47:43 36° 97° (E) 10:51:43 145.825 FM, Beacon 2401.500 USB
UKube-1 20 Sep 11:00:52 11:05:15 74° 103° (ESE) 11:09:36 145.840 MHz, 145.915 MHz
PCSat 20 Sep 11:37:18 11:40:44 17° 105° (ESE) 11:44:11 145.825 MHz
HO-68 20 Sep 12:09:41 12:15:37 29° 301° (WNW) 12:21:33 435.675 MHz FM
FUNcube-1 20 Sep 12:11:15 12:15:51 63° 286° (WNW) 12:20:22 145.950 - 145.970 MHz USB
RS-15 20 Sep 12:12:23 12:22:35 40° 36° (NE) 12:33:04 29.354 - 29.394 USB, Beacon 29.352 USB
Oscar 11 20 Sep 12:20:21 12:23:41 22° 294° (WNW) 12:27:00 145.825 FM, Beacon 2401.500 USB
UKube-1 20 Sep 12:39:09 12:40:51 12° 300° (WNW) 12:42:33 145.840 MHz, 145.915 MHz
JAS-1B 20 Sep 12:40:25 12:44:47 16° 56° (NE) 12:48:49 435.800 - 435.900 CW/SSB
Oscar 19 20 Sep 12:47:21 12:50:44 18° 61° (ENE) 12:54:08 437.125 CW, 437.150 USB
Sapphire 20 Sep 12:51:13 12:56:34 69° 117° (ESE) 13:01:59 437.095 MHz 1200 baud AX-25 AFSK
AO-27 20 Sep 13:08:49 13:10:56 13° 57° (ENE) 13:13:04 436.795 MHz FM
PCSat 20 Sep 13:18:10 13:23:33 69° 302° (WNW) 13:28:59 145.825 MHz
Oscar 16 20 Sep 13:24:36 13:29:21 38° 68° (ENE) 13:34:08 437.025 USB, Beacon 2401.1428
AO-Echo 20 Sep 13:32:39 13:36:03 20° 64° (ENE) 13:39:26 ?
Gurwin Techsat 1B 20 Sep 14:04:14 14:07:54 19° 61° (ENE) 14:11:35 435.225 FM
ITAMSAT 1 20 Sep 14:09:39 14:14:28 41° 69° (ENE) 14:19:19 435.822 SSB
Uribyol 2 20 Sep 14:13:30 14:18:25 48° 70° (ENE) 14:23:24 436.500 FM
Oscar 19 20 Sep 14:24:23 14:29:32 66° 258° (WSW) 14:34:44 437.125 CW, 437.150 USB
RS-15 20 Sep 14:24:51 14:35:55 75° 242° (WSW) 14:47:27 29.354 - 29.394 USB, Beacon 29.352 USB
JAS-1B 20 Sep 14:26:02 14:34:33 76° 73° (ENE) 14:41:40 435.800 - 435.900 CW/SSB
Sapphire 20 Sep 14:36:21 14:40:31 22° 317° (NW) 14:44:43 437.095 MHz 1200 baud AX-25 AFSK
TMSAT-1 20 Sep 14:39:43 14:44:11 29° 65° (ENE) 14:48:41 436.925 FM
AO-27 20 Sep 14:44:29 14:49:39 87° 75° (ENE) 14:54:52 436.795 MHz FM
Oscar 16 20 Sep 15:04:21 15:08:46 28° 265° (W) 15:13:13 437.025 USB, Beacon 2401.1428
PCSat 20 Sep 15:05:01 15:08:00 15° 324° (NW) 15:11:00 145.825 MHz
AO-Echo 20 Sep 15:09:58 15:14:31 46° 261° (W) 15:19:03 ?
AO-7 20 Sep 15:31:08 15:38:27 36° 58° (ENE) 15:45:45 29.400 - 29.500 MHz
Gurwin Techsat 1B 20 Sep 15:42:09 15:47:23 61° 259° (W) 15:52:40 435.225 FM
ITAMSAT 1 20 Sep 15:49:53 15:54:06 25° 266° (W) 15:58:21 435.822 SSB
Uribyol 2 20 Sep 15:54:12 15:58:08 22° 267° (W) 16:02:07 436.500 FM
TMSAT-1 20 Sep 16:19:03 16:23:57 39° 263° (W) 16:28:54 436.925 FM
JAS-1B 20 Sep 16:19:12 16:25:30 23° 267° (W) 16:31:08 435.800 - 435.900 CW/SSB
Uosat F 20 Sep 16:20:30 16:25:11 43° 69° (ENE) 16:29:54 435.120 FM
AO-27 20 Sep 16:28:11 16:29:50 11° 272° (W) 16:31:30 436.795 MHz FM
RS-15 20 Sep 16:39:56 16:46:20 17° 262° (W) 16:52:54 29.354 - 29.394 USB, Beacon 29.352 USB
Saudisat 1A 20 Sep 16:42:52 16:45:42 17° 111° (ESE) 16:48:32 436.775 MHz
AO-7 20 Sep 17:22:46 17:30:54 57° 257° (WSW) 17:39:03 29.400 - 29.500 MHz
OPAL 20 Sep 17:24:52 17:28:55 23° 95° (E) 17:32:54 ?
JAS-2 20 Sep 17:42:36 17:47:21 37° 68° (ENE) 17:52:05 435.800 - 435.900 CW/SSB, 435.910 FM
Uosat F 20 Sep 18:00:12 18:04:08 23° 266° (W) 18:08:06 435.120 FM
MaSat-1 20 Sep 18:19:14 18:23:07 80° 63° (ENE) 18:26:23 437.345 MHz
Saudisat 1A 20 Sep 18:20:31 18:24:51 55° 308° (NW) 18:29:12 436.775 MHz
Hamsat 20 Sep 18:26:15 18:30:37 83° 76° (ENE) 18:34:59 145.90 MHz
KITSAT 1 20 Sep 18:57:20 19:04:05 30° 106° (ESE) 19:10:50 435.175 FM
OPAL 20 Sep 19:03:04 19:08:01 46° 293° (WNW) 19:12:52 ?
HO-68 20 Sep 19:10:14 19:11:20 10° 45° (NE) 19:12:26 435.675 MHz FM
SO-67 20 Sep 19:14:04 19:17:13 33° 72° (ENE) 19:20:22 435.3500 MHz FM
JAS-2 20 Sep 19:28:14 19:32:36 26° 265° (W) 19:36:56 435.800 - 435.900 CW/SSB, 435.910 FM
STRAND 1 20 Sep 19:45:35 19:50:21 37° 98° (E) 19:55:05 ?
Sapphire 20 Sep 19:56:23 19:59:15 14° 36° (NE) 20:02:07 437.095 MHz 1200 baud AX-25 AFSK
Saudisat 1A 20 Sep 20:04:10 20:05:24 11° 328° (NNW) 20:06:39 436.775 MHz
PCSat 20 Sep 20:22:36 20:26:44 21° 43° (NE) 20:30:50 145.825 MHz
SO-67 20 Sep 20:48:29 20:50:22 14° 268° (W) 20:52:15 435.3500 MHz FM
HO-68 20 Sep 20:50:35 20:57:23 50° 66° (ENE) 21:04:13 435.675 MHz FM
KITSAT 1 20 Sep 20:50:54 20:58:55 65° 306° (NW) 21:06:59 435.175 FM
STRAND 1 20 Sep 21:25:02 21:29:23 29° 295° (WNW) 21:33:44 ?
FUNcube-1 20 Sep 21:34:44 21:36:49 13° 61° (ENE) 21:38:56 145.950 - 145.970 MHz USB
Sapphire 20 Sep 21:38:20 21:43:45 66° 57° (ENE) 21:49:09 437.095 MHz 1200 baud AX-25 AFSK
Oscar 11 20 Sep 21:39:37 21:43:30 33° 69° (ENE) 21:47:25 145.825 FM, Beacon 2401.500 USB
UKube-1 20 Sep 21:57:04 22:01:22 72° 74° (ENE) 22:05:42 145.840 MHz, 145.915 MHz
PCSat 20 Sep 22:05:17 22:10:42 72° 243° (WSW) 22:16:05 145.825 MHz
SO-50 20 Sep 22:28:07 22:32:18 40° 117° (ESE) 22:36:35 436.795 FM
HO-68 20 Sep 22:38:59 22:45:16 33° 264° (W) 22:51:37 435.675 MHz FM
KITSAT 1 20 Sep 22:50:09 22:56:02 21° 331° (NNW) 23:01:57 435.175 FM
FUNcube-1 20 Sep 23:08:12 23:12:35 71° 258° (WSW) 23:17:08 145.950 - 145.970 MHz USB
Oscar 11 20 Sep 23:16:12 23:19:43 24° 266° (W) 23:23:16 145.825 FM, Beacon 2401.500 USB
Sapphire 20 Sep 23:23:00 23:26:37 18° 255° (WSW) 23:30:13 437.095 MHz 1200 baud AX-25 AFSK
UKube-1 20 Sep 23:37:08 23:38:03 11° 271° (W) 23:38:58 145.840 MHz, 145.915 MHz
UOSAT-12 20 Sep 23:59:15 00:03:14 29° 114° (ESE) 00:07:18 437.025 FM, 437.400 FM
SO-50 21 Sep 00:09:06 00:12:59 27° 316° (NW) 00:16:57 436.795 FM
KITSAT 1 21 Sep 00:51:45 00:55:15 13° 1° (N) 00:58:44 435.175 FM
Saudisat 1A 21 Sep 01:07:24 01:10:52 22° 42° (NE) 01:14:20 436.775 MHz
